Regional Weather Roundup
Issued by NWS

Home | Current Version | Previous Version | Text Only | Print | Product List | Glossary Off
Versions: 1 2 3 4 5 6 7 8 9 10 11 12 13 14 15 16 17 18 19 20 21 22 23 24 25 26 27 28 29 30 31 32 33 34 35 36 37 38 39 40 41 42 43 44 45 46 47 48 49 50

000
ASUS45 KCYS 060010
RWRWY

WYOMING REGIONAL WEATHER ROUNDUP
NATIONAL WEATHER SERVICE CHEYENNE WY
600 PM MDT TUE MAY 05 2015

NOTE:  "FAIR" INDICATES FEW OR NO CLOUDS BELOW 12,000 FEET
WITH NO SIGNIFICANT WEATHER AND/OR OBSTRUCTIONS TO VISIBILITY.

WYZ001-060100-
YELLOWSTONE NATIONAL PARK

CITY           SKY/WX    TMP DP  RH WIND       PRES   REMARKS
LK YELLOWSTONE   N/A     53  35  50 VRB7      29.89R
6HR MIN TEMP:  49; 6HR MAX TEMP:  59;

W YELLOWSTONE  NOT AVBL

$$
WYZ002>013-054>058-071-098>099-060100-
NORTHERN WYOMING

CITY           SKY/WX    TMP DP  RH WIND       PRES   REMARKS
JACKSON        PTSUNNY   57  39  51 CALM      29.82S
CODY           FAIR      70  36  28 S14       29.69F
GREYBULL       FAIR      79  34  19 W9        29.62S
6HR MIN TEMP:  72; 6HR MAX TEMP:  81;

WORLAND        FAIR      77  35  21 E5        29.63F
6HR MIN TEMP:  71; 6HR MAX TEMP:  79;

SHERIDAN       FAIR      68  43  40 SE12      29.68F
6HR MIN TEMP:  68; 6HR MAX TEMP:  73;

BUFFALO        PTSUNNY   69  44  40 SE17      29.75F
6HR MIN TEMP:  66; 6HR MAX TEMP:  70;

GILLETTE       FAIR      66  46  48 SE24G36   29.76S
6HR MIN TEMP:  62; 6HR MAX TEMP:  69;

HULETT         MOCLDY    68  45  42 S20       29.80S
NEWCASTLE      FAIR      63  45  51 SE18      29.83F

$$
WYZ014>020-022>026-101>103-060100-
CENTRAL WYOMING

CITY           SKY/WX    TMP DP  RH WIND       PRES   REMARKS
BIG PINEY      LGT RAIN  51  42  71 NW8       29.86R
6HR MIN TEMP:  51; 6HR MAX TEMP:  64; 6HR PCP:  0.01;

PINEDALE       CLOUDY    55  36  47 W14       29.83S
DUBOIS         CLOUDY    57  32  38 S16G22    29.80R
LANDER         FAIR      65  38  36 SE3       29.70F
6HR MIN TEMP:  61; 6HR MAX TEMP:  70;

RIVERTON       FAIR      70  32  24 CALM      29.71F
6HR MIN TEMP:  64; 6HR MAX TEMP:  72;

CASPER         PTSUNNY   63  44  50 E12       29.74R
6HR MIN TEMP:  60; 6HR MAX TEMP:  69;

DOUGLAS        FAIR      60  47  61 SE25G32   29.80F
6HR MIN TEMP:  57; 6HR MAX TEMP:  66;


$$
WYZ021-027>030-104>119-060100-
SOUTHERN WYOMING

CITY           SKY/WX    TMP DP  RH WIND       PRES   REMARKS
EVANSTON       LGT RAIN  49  45  86 W10       29.89R
6HR MIN TEMP:  47; 6HR MAX TEMP:  59; 6HR PCP:  0.24;

KEMMERER       LGT RAIN  46  45  93 S10       29.90S
FORT BRIDGER   RAIN      48  48 100 W10       29.90S
ROCK SPRINGS   CLOUDY    55  39  54 W12       29.81R
6HR MIN TEMP:  55; 6HR MAX TEMP:  68; 6HR PCP: TRACE;

DIXON          FAIR      61  40  45 E15       29.77F
RAWLINS        FAIR      66  40  38 NE20G26   29.77F
6HR MIN TEMP:  58; 6HR MAX TEMP:  67;

SARATOGA       CLOUDY    54  41  62 S14G21    29.80F
LARAMIE        CLOUDY    49  41  74 SE20      29.85S
6HR MIN TEMP:  48; 6HR MAX TEMP:  56;

CHEYENNE       CLOUDY    49  46  90 SE16      29.86F
6HR MIN TEMP:  47; 6HR MAX TEMP:  50; 6HR PCP:  0.02;

TORRINGTON     CLOUDY    57  49  74 SE16      29.83F
6HR MIN TEMP:  57; 6HR MAX TEMP:  62;

PINE BLUFFS    CLOUDY    52  48  87 SE12      29.86F

$$



USA.gov is the U.S. government's official web portal to all federal, state and local government web resources and services.